H1 CPF 2 NER 2025 11 14 9 318 01 glonass139 H2 1808601 9139 43687 2025 11 14 0 0 0 2025 11 17 23 45 0 900 1 1 0 0 0 1 H9 10 0 60993 0.00000 0 17897237.677 -16382998.541 7870399.075 10 0 60993 900.00000 0 18461047.501 -16935149.646 4790892.861 10 0 60993 1800.00000 0 18685967.938 -17282495.002 1618293.882 10 0 60993 2700.00000 0 18598591.611 -17376895.357 -1585756.199 10 0 60993 3600.00000 0 18236052.979 -17178239.884 -4758976.713 10 0 60993 4500.00000 0 17644291.057 -16656330.554 -7839663.169 10 0 60993 5400.00000 0 16875955.453 -15792363.604 -10767892.869 10 0 60993 6300.00000 0 15988044.637 -14579944.087 -13486696.752 10 0 60993 7200.00000 0 15039376.825 -13025589.236 -15943173.883 10 0 60993 8100.00000 0 14088000.959 -11148698.026 -18089526.234 10 0 60993 9000.00000 0 13188657.693 -8980986.846 -19883993.160 10 0 60993 9900.00000 0 12390398.159 -6565413.862 -21291667.013 10 0 60993 10800.00000 0 11734461.312 -3954636.123 -22285173.964 10 0 60993 11700.00000 0 11252499.611 -1209063.147 -22845206.826 10 0 60993 12600.00000 0 10965227.872 1605412.383 -22960899.700 10 0 60993 13500.00000 0 10881552.061 4419912.725 -22630037.414 10 0 60993 14400.00000 0 10998214.480 7165198.415 -21859095.943 10 0 60993 15300.00000 0 11299969.904 9774308.069 -20663113.231 10 0 60993 16200.00000 0 11760284.787 12185105.270 -19065393.143 10 0 60993 17100.00000 0 12342529.597 14342627.132 -17097048.379 10 0 60993 18000.00000 0 13001613.514 16201137.369 -14796391.352 10 0 60993 18900.00000 0 13685992.018 17725799.144 -12208184.991 10 0 60993 19800.00000 0 14339962.187 18893898.910 -9382768.131 10 0 60993 20700.00000 0 14906148.300 19695571.239 -6375072.749 10 0 60993 21600.00000 0 15328072.356 20133995.684 -3243552.448 10 0 60993 22500.00000 0 15552700.504 20225058.836 -49043.365 10 0 60993 23400.00000 0 15532857.473 19996497.268 3146419.906 10 0 60993 24300.00000 0 15229406.753 19486558.814 6280809.980 10 0 60993 25200.00000 0 14613104.239 18742239.808 9293310.232 10 0 60993 26100.00000 0 13666046.960 17817173.518 12125492.646 10 0 60993 27000.00000 0 12382655.603 16769259.467 14722447.163 10 0 60993 27900.00000 0 10770149.202 15658133.824 17033840.896 10 0 60993 28800.00000 0 8848491.612 14542587.371 19014887.152 10 0 60993 29700.00000 0 6649811.408 13478039.380 20627206.181 10 0 60993 30600.00000 0 4217318.605 12514172.951 21839561.846 10 0 60993 31500.00000 0 1603762.412 11692830.429 22628460.767 10 0 60993 32400.00000 0 -1130507.030 11046256.373 22978603.165 10 0 60993 33300.00000 0 -3919793.712 10595761.000 22883177.308 10 0 60993 34200.00000 0 -6695535.445 10350859.532 22343992.214 10 0 60993 35100.00000 0 -9388906.776 10308923.112 21371446.079 10 0 60993 36000.00000 0 -11933438.592 10455355.789 19984330.758 10 0 60993 36900.00000 0 -14267546.935 10764290.286 18209475.459 10 0 60993 37800.00000 0 -16336867.098 11199773.676 16081235.717 10 0 60993 38700.00000 0 -18096296.761 11717393.623 13640836.509 10 0 60993 39600.00000 0 -19511663.600 12266277.293 10935581.252 10 0 60993 40500.00000 0 -20560948.128 12791379.147 8017941.066 10 0 60993 41400.00000 0 -21235010.777 13235961.409 4944541.233 10 0 60993 42300.00000 0 -21537792.745 13544162.433 1775064.078 10 0 60993 43200.00000 0 -21485982.173 13663544.119 -1428910.523 10 0 60993 44100.00000 0 -21108159.671 13547509.961 -4605104.360 10 0 60993 45000.00000 0 -20443459.253 13157490.497 -7691755.968 10 0 60993 45900.00000 0 -19539801.326 12464802.467 -10628827.324 10 0 60993 46800.00000 0 -18451772.611 11452101.703 -13359177.922 10 0 60993 47700.00000 0 -17238242.870 10114366.858 -15829682.605 10 0 60993 48600.00000 0 -15959819.519 8459370.972 -17992270.720 10 0 60993 49500.00000 0 -14676247.958 6507619.524 -19804865.916 10 0 60993 50400.00000 0 -13443867.688 4291756.248 -21232207.932 10 0 60993 51300.00000 0 -12313231.652 1855460.434 -22246540.297 10 0 60993 52200.00000 0 -11326989.205 -748119.164 -22828150.630 10 0 60993 53100.00000 0 -10518121.698 -3458329.148 -22965753.195 10 0 60993 54000.00000 0 -9908604.643 -6209293.752 -22656706.525 10 0 60993 54900.00000 0 -9508552.217 -8932419.986 -21907062.147 10 0 60993 55800.00000 0 -9315879.473 -11559021.767 -20731443.697 10 0 60993 56700.00000 0 -9316495.701 -14022954.216 -19152758.937 10 0 60993 57600.00000 0 -9485019.958 -16263148.895 -17201750.418 10 0 60993 58500.00000 0 -9785987.786 -18225944.846 -14916393.599 10 0 60993 59400.00000 0 -10175497.365 -19867118.849 -12341154.230 10 0 60993 60300.00000 0 -10603224.855 -21153530.933 -9526119.561 10 0 60993 61200.00000 0 -11014723.044 -22064317.218 -6526020.482 10 0 60993 62100.00000 0 -11353905.510 -22591581.228 -3399163.899 10 0 60993 63000.00000 0 -11565610.675 -22740555.918 -206296.444 10 0 60993 63900.00000 0 -11598136.851 -22529230.823 2990577.939 10 0 60993 64800.00000 0 -11405640.662 -21987461.309 6129403.181 10 0 60993 65700.00000 0 -10950297.185 -21155598.546 9149275.311 10 0 60993 66600.00000 0 -10204130.277 -20082698.887 11991622.126 10 0 60993 67500.00000 0 -9150435.651 -18824388.721 14601335.440 10 0 60993 68400.00000 0 -7784736.407 -17440475.090 16927834.228 10 0 60993 69300.00000 0 -6115230.444 -15992402.604 18926038.497 10 0 60993 70200.00000 0 -4162710.370 -14540663.238 20557235.749 10 0 60993 71100.00000 0 -1959958.461 -13142267.153 21789824.067 10 0 60993 72000.00000 0 449359.069 -11848379.809 22599918.286 10 0 60993 72900.00000 0 3012253.622 -10702223.396 22971808.352 10 0 60993 73800.00000 0 5668368.003 -9737329.464 22898261.611 10 0 60993 74700.00000 0 8352242.743 -8976214.969 22380663.554 10 0 60993 75600.00000 0 10995802.348 -8429536.342 21428994.355 10 0 60993 76500.00000 0 13530959.798 -8095756.454 20061641.350 10 0 60993 77400.00000 0 15892232.416 -7961338.092 18305050.519 10 0 60993 78300.00000 0 18019261.577 -8001455.770 16193222.845 10 0 60993 79200.00000 0 19859132.268 -8181196.065 13767064.305 10 0 60993 80100.00000 0 21368396.436 -8457196.240 11073601.097 10 0 60993 81000.00000 0 22514715.936 -8779652.383 8165074.341 10 0 60993 81900.00000 0 23278056.452 -9094612.493 5097931.104 10 0 60993 82800.00000 0 23651382.241 -9346457.674 1931730.857 10 0 60993 83700.00000 0 23640822.290 -9480466.253 -1272011.514 10 0 60993 84600.00000 0 23265300.719 -9445351.753 -4451023.526 10 0 60993 85500.00000 0 22555646.748 -9195666.467 -7543489.976 10 0 60994 0.00000 0 21553221.822 -8693967.816 -10489260.344 10 0 60994 900.00000 0 20308121.177 -7912654.184 -13231026.065 10 0 60994 1800.00000 0 18877027.334 -6835391.879 -15715440.035 10 0 60994 2700.00000 0 17320804.447 -5458070.540 -17894161.197 10 0 60994 3600.00000 0 15701936.527 -3789245.783 -19724799.373 10 0 60994 4500.00000 0 14081917.203 -1850048.795 -21171743.211 10 0 60994 5400.00000 0 12518701.169 326434.623 -22206854.775 10 0 60994 6300.00000 0 11064324.507 2696290.731 -22810017.306 10 0 60994 7200.00000 0 9762793.743 5206364.022 -22969525.670 10 0 60994 8100.00000 0 8648331.924 7796237.480 -22682312.166 10 0 60994 9000.00000 0 7744054.749 10400524.921 -21954003.567 10 0 60994 9900.00000 0 7061131.546 12951380.345 -20798808.496 10 0 60994 10800.00000 0 6598465.362 15381120.134 -19239237.548 10 0 60994 11700.00000 0 6342904.506 17624849.220 -17305661.685 10 0 60994 12600.00000 0 6269975.491 19622982.054 -15035717.596 10 0 60994 13500.00000 0 6345105.315 21323553.616 -12473571.691 10 0 60994 14400.00000 0 6525280.407 22684224.463 -9669057.125 10 0 60994 15300.00000 0 6761071.149 23673896.577 -6676700.877 10 0 60994 16200.00000 0 6998935.468 24273873.118 -3554660.067 10 0 60994 17100.00000 0 7183703.274 24478514.375 -363588.547 10 0 60994 18000.00000 0 7261135.949 24295363.375 2834543.772 10 0 60994 18900.00000 0 7180452.062 23744736.931 5977655.510 10 0 60994 19800.00000 0 6896712.044 22858800.345 9004758.617 10 0 60994 20700.00000 0 6372960.692 21680165.587 11857139.777 10 0 60994 21600.00000 0 5582036.781 20260072.604 14479495.486 10 0 60994 22500.00000 0 4507973.132 18656230.644 16820999.080 10 0 60994 23400.00000 0 3146927.891 16930410.377 18836279.430 10 0 60994 24300.00000 0 1507607.336 15145887.642 20486293.082 10 0 60994 25200.00000 0 -388838.196 13364845.414 21739073.743 10 0 60994 26100.00000 0 -2509441.842 11645841.962 22570345.465 10 0 60994 27000.00000 0 -4810546.140 10041450.101 22963988.480 10 0 60994 27900.00000 0 -7239381.796 8596165.047 22912349.296 10 0 60994 28800.00000 0 -9736035.036 7344667.182 22416389.464 10 0 60994 29700.00000 0 -12235723.285 6310511.234 21485670.185 10 0 60994 30600.00000 0 -14671286.138 5505295.723 20138172.798 10 0 60994 31500.00000 0 -16975789.441 4928346.766 18399958.041 10 0 60994 32400.00000 0 -19085135.368 4566928.977 16304669.863 10 0 60994 33300.00000 0 -20940570.784 4396974.369 13892892.354 10 0 60994 34200.00000 0 -22490989.865 4384298.559 11211371.298 10 0 60994 35100.00000 0 -23694935.146 4486253.090 8312114.439 10 0 60994 36000.00000 0 -24522213.280 4653744.221 5251387.179 10 0 60994 36900.00000 0 -24955057.529 4833532.869 2088622.715 10 0 60994 37800.00000 0 -24988787.825 4970718.212 -1114732.353 10 0 60994 38700.00000 0 -24631940.181 5011299.366 -4296414.403 10 0 60994 39600.00000 0 -23905859.524 4904705.928 -7394557.416 10 0 60994 40500.00000 0 -22843772.794 4606189.221 -10348901.578 10 0 60994 41400.00000 0 -21489381.068 4078971.796 -13101971.628 10 0 60994 42300.00000 0 -19895030.001 3296062.866 -15600201.196 10 0 60994 43200.00000 0 -18119535.667 2241661.495 -17794980.605 10 0 60994 44100.00000 0 -16225757.465 912086.809 -19643607.238 10 0 60994 45000.00000 0 -14278020.347 -683805.411 -21110119.600 10 0 60994 45900.00000 0 -12339494.806 -2524738.617 -22165998.758 10 0 60994 46800.00000 0 -10469644.592 -4577660.266 -22790723.574 10 0 60994 47700.00000 0 -8721849.092 -6798889.496 -22972169.058 10 0 60994 48600.00000 0 -7141299.622 -9135720.567 -22706840.394 10 0 60994 49500.00000 0 -5763257.181 -11528415.807 -21999938.336 10 0 60994 50400.00000 0 -4611743.828 -13912505.369 -20865254.910 10 0 60994 51300.00000 0 -3698721.461 -16221298.275 -19324901.678 10 0 60994 52200.00000 0 -3023791.195 -18388500.264 -17408875.929 10 0 60994 53100.00000 0 -2574424.610 -20350829.459 -15154473.344 10 0 60994 54000.00000 0 -2326715.704 -22050520.824 -12605558.637 10 0 60994 54900.00000 0 -2246620.467 -23437615.047 -9811708.470 10 0 60994 55800.00000 0 -2291630.439 -24471936.395 -6827243.503 10 0 60994 56700.00000 0 -2412808.354 -25124677.178 -3710168.701 10 0 60994 57600.00000 0 -2557098.728 -25379522.958 -521042.810 10 0 60994 58500.00000 0 -2669814.736 -25233271.980 2678200.556 10 0 60994 59400.00000 0 -2697195.424 -24695923.589 5825456.918 10 0 60994 60300.00000 0 -2588924.485 -23790232.723 8859656.319 10 0 60994 61200.00000 0 -2300503.668 -22550749.972 11721946.437 10 0 60994 62100.00000 0 -1795380.225 -21022388.149 14356830.488 10 0 60994 63000.00000 0 -1046738.367 -19258575.988 16713238.081 10 0 60994 63900.00000 0 -38878.954 -17319076.547 18745508.702 10 0 60994 64800.00000 0 1231870.966 -15267561.600 20414269.467 10 0 60994 65700.00000 0 2756757.504 -13169043.008 21687190.970 10 0 60994 66600.00000 0 4514725.675 -11087267.692 22539607.433 10 0 60994 67500.00000 0 6473067.264 -9082183.966 22954989.992 10 0 60994 68400.00000 0 8588564.984 -7207583.731 22925264.613 10 0 60994 69300.00000 0 10809086.579 -5509017.633 22450968.869 10 0 60994 70200.00000 0 13075563.988 -4022068.857 21541244.643 10 0 60994 71100.00000 0 15324276.708 -2771056.431 20213666.631 10 0 60994 72000.00000 0 17489345.698 -1768221.221 18493909.415 10 0 60994 72900.00000 0 19505335.238 -1013427.854 16415258.703 10 0 60994 73800.00000 0 21309855.290 -494394.507 14017975.217 10 0 60994 74700.00000 0 22846056.383 -187440.548 11348522.551 10 0 60994 75600.00000 0 24064913.102 -58720.386 8458673.000 10 0 60994 76500.00000 0 24927200.575 -65891.388 5404507.922 10 0 60994 77400.00000 0 25405080.752 -160145.330 2245331.598 10 0 60994 78300.00000 0 25483231.385 -288517.262 -957480.522 10 0 60994 79200.00000 0 25159469.551 -396373.664 -4141676.686 10 0 60994 80100.00000 0 24444842.804 -429973.907 -7245343.098 10 0 60994 81000.00000 0 23363183.467 -338995.654 -10208113.368 10 0 60994 81900.00000 0 21950144.283 -78916.198 -12972348.881 10 0 60994 82800.00000 0 20251755.676 386852.326 -15484266.302 10 0 60994 83700.00000 0 18322565.091 1085165.479 -17694989.641 10 0 60994 84600.00000 0 16223436.556 2031764.124 -19561505.855 10 0 60994 85500.00000 0 14019102.936 3230366.792 -21047505.038 10 0 60995 0.00000 0 11775573.757 4672276.180 -22124088.652 10 0 60995 900.00000 0 9557506.044 6336518.353 -22770332.544 10 0 60995 1800.00000 0 7425651.090 8190507.862 -22973692.632 10 0 60995 2700.00000 0 5434479.674 10191214.373 -22730247.541 10 0 60995 3600.00000 0 3630087.436 12286780.813 -22044772.192 10 0 60995 4500.00000 0 2048466.049 14418526.647 -20930641.818 10 0 60995 5400.00000 0 714211.624 16523252.833 -19409568.330 10 0 60995 6300.00000 0 -360276.853 18535752.418 -17511174.303 10 0 60995 7200.00000 0 -1175076.877 20391421.973 -15272412.930 10 0 60995 8100.00000 0 -1742489.452 22028864.805 -12736845.343 10 0 60995 9000.00000 0 -2086265.997 23392377.103 -9953789.420 10 0 60995 9900.00000 0 -2240349.316 24434213.007 -6977356.870 10 0 60995 10800.00000 0 -2247183.169 25116533.843 -3865397.555 10 0 60995 11700.00000 0 -2155663.239 25412960.051 -678371.947 10 0 60995 12600.00000 0 -2018817.224 25309661.014 2521825.959 10 0 60995 13500.00000 0 -1891313.159 24805937.546 5673071.964 10 0 60995 14400.00000 0 -1826902.091 23914273.065 8714217.543 10 0 60995 15300.00000 0 -1875903.817 22659851.893 11586274.592 10 0 60995 16200.00000 0 -2082842.289 21079565.360 14233556.081 10 0 60995 17100.00000 0 -2484330.759 19220547.739 16604750.687 10 0 60995 18000.00000 0 -3107296.038 17138303.477 18653911.018 10 0 60995 18900.00000 0 -3967616.814 14894503.947 20341336.960 10 0 60995 19800.00000 0 -5069233.576 12554545.343 21634337.840 10 0 60995 20700.00000 0 -6403767.972 10184968.948 22507859.519 10 0 60995 21600.00000 0 -7950668.254 7850850.299 22944965.094 10 0 60995 22500.00000 0 -9677875.680 5613264.828 22937160.576 10 0 60995 23400.00000 0 -11542985.202 3526934.184 22484559.640 10 0 60995 24300.00000 0 -13494853.360 1638149.873 21595884.389 10 0 60995 25200.00000 0 -15475587.736 -16940.618 20288301.850 10 0 60995 26100.00000 0 -17422836.429 -1413614.929 18587098.839 10 0 60995 27000.00000 0 -19272283.301 -2539371.692 16525200.686 10 0 60995 27900.00000 0 -20960245.927 -3394208.676 14142542.108 10 0 60995 28800.00000 0 -22426268.388 -3990372.134 11485301.472 10 0 60995 29700.00000 0 -23615600.833 -4351588.287 8605012.272 10 0 60995 30600.00000 0 -24481461.952 -4511809.594 5557568.287 10 0 60995 31500.00000 0 -24986989.073 -4513528.885 2402141.256 10 0 60995 32400.00000 0 -25106793.382 -4405732.853 -799968.139 10 0 60995 33300.00000 0 -24828054.032 -4241581.835 -3986523.535 10 0 60995 34200.00000 0 -24151104.176 -4075914.626 -7095566.740 10 0 60995 35100.00000 0 -23089483.344 -3962684.759 -10066627.975 10 0 60995 36000.00000 0 -21669453.102 -3952437.726 -12841908.210 10 0 60995 36900.00000 0 -19928995.695 -4089937.050 -15367409.799 10 0 60995 37800.00000 0 -17916337.259 -4412040.817 -17593992.716 10 0 60995 38700.00000 0 -15688057.288 -4945919.657 -19478335.345 10 0 60995 39600.00000 0 -13306863.484 -5707692.617 -20983780.712 10 0 60995 40500.00000 0 -10839125.131 -6701539.607 -22081051.594 10 0 60995 41400.00000 0 -8352268.075 -7919328.847 -22748820.629 10 0 60995 42300.00000 0 -5912140.098 -9340775.903 -22974124.482 10 0 60995 43200.00000 0 -3580456.421 -10934128.463 -22752614.284 10 0 60995 44100.00000 0 -1412431.465 -12657348.776 -22088637.726 10 0 60995 45000.00000 0 545304.907 -14459744.713 -20995151.439 10 0 60995 45900.00000 0 2256420.682 -16283981.483 -19493465.567 10 0 60995 46800.00000 0 3696154.071 -18068390.023 -17612825.601 10 0 60995 47700.00000 0 4852093.159 -19749475.475 -15389839.702 10 0 60995 48600.00000 0 5724431.715 -21264520.684 -12867762.745 10 0 60995 49500.00000 0 6325692.126 -22554175.591 -10095651.094 10 0 60995 50400.00000 0 6679928.783 -23564923.857 -7127404.736 10 0 60995 51300.00000 0 6821447.136 -24251323.155 -4020715.698 10 0 60995 52200.00000 0 6793094.006 -24577925.122 -835943.492 10 0 60995 53100.00000 0 6644192.701 -24520794.403 2365060.089 10 0 60995 54000.00000 0 6428211.401 -24068563.155 5520153.589 10 0 60995 54900.00000 0 6200264.291 -23222976.999 8568112.229 10 0 60995 55800.00000 0 6014551.783 -21998909.755 11449814.270 10 0 60995 56700.00000 0 5921848.438 -20423846.659 14109384.382 10 0 60995 57600.00000 0 5967144.914 -18536857.879 16495272.026 10 0 60995 58500.00000 0 6187543.511 -16387105.357 18561244.399 10 0 60995 59400.00000 0 6610495.999 -14031945.217 20267275.325 10 0 60995 60300.00000 0 7252457.934 -11534704.490 21580313.737 10 0 60995 61200.00000 0 8118016.149 -8962224.168 22474917.684 10 0 60995 62100.00000 0 9199526.383 -6382269.884 22933742.449 10 0 60995 63000.00000 0 10477276.843 -3860916.757 22947874.014 10 0 60995 63900.00000 0 11920171.679 -1460015.810 22517001.800 10 0 60995 64800.00000 0 13486906.890 765154.129 21649427.512 10 0 60995 65700.00000 0 15127590.760 2767952.787 20361909.666 10 0 60995 66600.00000 0 16785742.383 4512078.311 18679346.268 10 0 60995 67500.00000 0 18400586.028 5972830.953 16634301.018 10 0 60995 68400.00000 0 19909546.475 7137888.770 14266381.188 10 0 60995 69300.00000 0 21250841.681 8007563.575 11621478.264 10 0 60995 70200.00000 0 22366064.631 8594526.982 8750885.069 10 0 60995 71100.00000 0 23202646.168 8923018.461 5710305.711 10 0 60995 72000.00000 0 23716095.074 9027569.032 2558777.079 10 0 60995 72900.00000 0 23871920.589 8951294.764 -642477.401 10 0 60995 73800.00000 0 23647155.612 8743832.531 -3831239.366 10 0 60995 74700.00000 0 23031415.336 8459005.801 -6945508.895 10 0 60995 75600.00000 0 22027445.657 8152319.889 -9924715.446 10 0 60995 76500.00000 0 20651137.089 7878393.508 -12710902.099 10 0 60995 77400.00000 0 18931002.651 7688436.242 -15249859.237 10 0 60995 78300.00000 0 16907140.791 7627879.706 -17492184.953 10 0 60995 79200.00000 0 14629726.237 7734263.580 -19394250.983 10 0 60995 80100.00000 0 12157091.593 8035466.844 -20919055.009 10 0 60995 81000.00000 0 9553479.669 8548359.816 -22036942.579 10 0 60995 81900.00000 0 6886560.264 9277934.654 -22726184.642 10 0 60995 82800.00000 0 4224814.892 10216951.687 -22973399.603 10 0 60995 83700.00000 0 1634898.274 11346117.048 -22773811.938 10 0 60995 84600.00000 0 -820913.838 12634784.649 -22131342.620 10 0 60995 85500.00000 0 -3087084.661 14042153.378 -21058529.814 10 0 60996 0.00000 0 -5116886.484 15518909.368 -19576281.753 10 0 60996 900.00000 0 -6874096.576 17009245.386 -17713465.831 10 0 60996 1800.00000 0 -8334246.672 18453170.602 -15506344.105 10 0 60996 2700.00000 0 -9485378.839 19789016.380 -12997863.584 10 0 60996 3600.00000 0 -10328274.906 20956030.761 -10236817.113 10 0 60996 4500.00000 0 -10876152.661 21896953.242 -7276890.639 10 0 60996 5400.00000 0 -11153843.089 22560461.319 -4175615.748 10 0 60996 6300.00000 0 -11196484.980 22903385.748 -993248.187 10 0 60996 7200.00000 0 -11047793.469 22892601.255 2208405.421 10 0 60996 8100.00000 0 -10757976.961 22506513.115 5367189.425 10 0 60996 9000.00000 0 -10381391.507 21736077.124 8421805.889 10 0 60996 9900.00000 0 -9974032.608 20585310.162 11313002.517 10 0 60996 10800.00000 0 -9590970.902 19071269.982 13984718.676 10 0 60996 11700.00000 0 -9283840.322 17223505.053 16385167.504 10 0 60996 12600.00000 0 -9098484.720 15082997.409 18467833.486 10 0 60996 13500.00000 0 -9072862.028 12700642.376 20192366.885 10 0 60996 14400.00000 0 -9235294.023 10135328.123 21525358.462 10 0 60996 15300.00000 0 -9603135.082 7451694.308 22440980.366 10 0 60996 16200.00000 0 -10181915.845 4717662.099 22921481.620 10 0 60996 17100.00000 0 -10964997.855 2001837.016 22957529.297 10 0 60996 18000.00000 0 -11933754.089 -629108.846 22548389.226 10 0 60996 18900.00000 0 -13058268.486 -3112967.925 21701942.853 10 0 60996 19800.00000 0 -14298526.136 -5394337.973 20434539.772 10 0 60996 20700.00000 0 -15606045.329 -7426676.465 18770688.203 10 0 60996 21600.00000 0 -16925884.262 -9173984.397 16742588.681 10 0 60996 22500.00000 0 -18198939.380 -10612050.277 14389518.978 10 0 60996 23400.00000 0 -19364439.803 -11729203.120 11757081.177 10 0 60996 24300.00000 0 -20362533.761 -12526543.556 8896324.518 10 0 60996 25200.00000 0 -21136858.553 -13017643.804 5862760.228 10 0 60996 26100.00000 0 -21636985.776 -13227729.407 2715286.917 10 0 60996 27000.00000 0 -21820638.344 -13192377.534 -484952.791 10 0 60996 27900.00000 0 -21655585.030 -12955787.053 -3675762.148 10 0 60996 28800.00000 0 -21121131.547 -12568693.878 -6795103.095 10 0 60996 29700.00000 0 -20209144.089 -12086020.245 -9782307.862 10 0 60996 30600.00000 0 -18924560.843 -11564358.037 -12579265.033 10 0 60996 31500.00000 0 -17285368.706 -11059393.388 -15131556.217 10 0 60996 32400.00000 0 -15322045.012 -10623382.362 -17389520.515 10 0 60996 33300.00000 0 -13076486.748 -10302785.281 -19309225.524 10 0 60996 34200.00000 0 -10600471.370 -10136160.472 -20853325.594 10 0 60996 35100.00000 0 -7953713.076 -10152407.092 -21991790.483 10 0 60996 36000.00000 0 -5201595.282 -10369431.750 -22702490.267 10 0 60996 36900.00000 0 -2412673.622 -10793295.621 -22971625.264 10 0 60996 37800.00000 0 343946.809 -11417878.303 -22793992.862 10 0 60996 38700.00000 0 3001251.086 -12225072.813 -22173086.326 10 0 60996 39600.00000 0 5496861.531 -13185503.645 -21121023.889 10 0 60996 40500.00000 0 7775386.805 -14259737.727 -19658309.701 10 0 60996 41400.00000 0 9790475.986 -15399937.323 -17813431.393 10 0 60996 42300.00000 0 11506492.988 -16551885.252 -15622302.200 10 0 60996 43200.00000 0 12899742.618 -17657297.048 -13127558.535 10 0 60996 44100.00000 0 13959198.471 -18656322.554 -10377726.798 10 0 60996 45000.00000 0 14686703.646 -19490131.338 -7426275.803 10 0 60996 45900.00000 0 15096637.566 -20103472.791 -4330573.503 10 0 60996 46800.00000 0 15215064.534 -20447102.770 -1150768.639 10 0 60996 47700.00000 0 15078401.468 -20479974.308 2051380.531 10 0 60996 48600.00000 0 14731662.454 -20171099.922 5213707.235 10 0 60996 49500.00000 0 14226355.376 -19501006.923 8274843.251 10 0 60996 50400.00000 0 13618120.430 -18462724.408 11175408.321 10 0 60996 51300.00000 0 12964210.822 -17062260.321 13859158.782 10 0 60996 52200.00000 0 12320922.337 -15318548.374 16274073.338 10 0 60996 53100.00000 0 11741080.226 -13262866.819 18373355.279 10 0 60996 54000.00000 0 11271689.114 -10937752.935 20116332.416 10 0 60996 54900.00000 0 10951844.497 -8395457.944 21469238.064 10 0 60996 55800.00000 0 10810993.205 -5696005.932 22405858.823 10 0 60996 56700.00000 0 10867615.545 -2904936.508 22908037.446 10 0 60996 57600.00000 0 11128384.143 -90823.740 22966021.775 10 0 60996 58500.00000 0 11587834.744 2677326.936 22578653.415 10 0 60996 59400.00000 0 12228562.977 5332697.276 21753392.689 10 0 60996 60300.00000 0 13021939.323 7813183.032 20506179.162 10 0 60996 61200.00000 0 13929313.020 10063725.378 18861129.981 10 0 60996 62100.00000 0 14903655.257 12038351.281 16850081.058 10 0 60996 63000.00000 0 15891573.603 13701838.891 14511979.028 10 0 60996 63900.00000 0 16835613.862 15030939.240 11892134.782 10 0 60996 64800.00000 0 17676753.199 16015103.826 9041352.017 10 0 60996 65700.00000 0 18356979.935 16656687.982 6014946.945 10 0 60996 66600.00000 0 18821851.312 16970621.781 2871677.621 10 0 60996 67500.00000 0 19022920.963 16983562.546 -327396.549 10 0 60996 68400.00000 0 18919932.949 16732564.892 -3520102.910 10 0 60996 69300.00000 0 18482688.686 16263324.710 -6644367.764 10 0 60996 70200.00000 0 17692506.692 15628071.661 -9639428.547 10 0 60996 71100.00000 0 16543212.178 14883199.742 -12447021.669 10 0 60996 72000.00000 0 15041613.310 14086736.732 -15012522.117 10 0 60996 72900.00000 0 13207442.715 13295760.147 -17286011.968 10 0 60996 73800.00000 0 11072765.411 12563869.598 -19223256.456 10 0 60996 74700.00000 0 8680876.933 11938822.946 -20786568.194 10 0 60996 75600.00000 0 6084736.903 11460436.580 -21945542.579 10 0 60996 76500.00000 0 3345002.813 11158838.747 -22677650.068 10 0 60996 77400.00000 0 527745.575 11053149.835 -22968673.946 10 0 60996 78300.00000 0 -2298058.419 11150645.272 -22812985.319 10 0 60996 79200.00000 0 -5063154.687 11446436.215 -22213650.239 10 0 60996 80100.00000 0 -7700648.555 11923681.331 -21182367.118 10 0 60996 81000.00000 0 -10148544.321 12554320.468 -19739235.865 10 0 60996 81900.00000 0 -12352080.594 13300299.032 -17912363.334 10 0 60996 82800.00000 0 -14265765.312 14115231.140 -15737312.873 10 0 60996 83700.00000 0 -15855026.522 14946431.106 -13256408.745 10 0 60996 84600.00000 0 -17097411.140 15737227.233 -10517909.028 10 0 60996 85500.00000 0 -17983282.831 16429459.930 -7575063.276 99